GW2451 Weather Reports


Display with metric or nautical units.
time (UTC)temp
F
wind
direction
speed
MPH
gust
MPH
rain 1hr
in
rain 24hr
in
rain mn
in
humidity
%
barometer
mb
20260506144559 50 12 2.0 4.0 0.00 1.33 0.24 87 1010.5
20260506143041 49 276 2.0 7.0 0.00 1.33 0.24 90 1010.3
20260506141545 48 0 0.0 3.0 0.00 1.33 0.24 93 1010.2
20260506140045 48 317 0.0 3.0 0.00 1.33 0.24 94 1010.0
20260506134549 47 268 0.0 3.0 0.00 1.33 0.24 94 1010.2
20260506133045 47 0 0.0 2.0 0.00 1.33 0.24 95 1010.1
20260506131547 46 0 0.0 2.0 0.00 1.33 0.24 95 1010.1
20260506130049 46 0 0.0 2.0 0.00 1.33 0.24 95 1009.8
20260506124546 46 252 0.0 2.0 0.00 1.33 0.24 95 1009.6
20260506123044 46 0 0.0 1.0 0.00 1.33 0.24 95 1009.4
20260506121542 45 0 0.0 1.0 0.00 1.33 0.24 95 1009.4
20260506120054 45 0 0.0 1.0 0.00 1.33 0.24 95 1009.4
20260506114546 45 0 0.0 0.0 0.00 1.33 0.24 95 1009.3
20260506113045 45 0 0.0 0.0 0.00 1.33 0.24 95 1008.9
20260506111541 45 0 0.0 1.0 0.00 1.33 0.24 95 1008.6
20260506110043 44 0 0.0 2.0 0.00 1.33 0.24 95 1008.4
20260506104548 44 323 0.0 2.0 0.00 1.33 0.24 95 1008.1
20260506103045 45 0 0.0 2.0 0.00 1.33 0.24 95 1008.1
20260506101542 44 0 0.0 2.0 0.01 1.33 0.24 94 1008.2
20260506100044 44 0 0.0 2.0 0.01 1.33 0.24 94 1007.4
20260506094544 45 0 0.0 2.0 0.01 1.33 0.24 94 1007.4
20260506093045 45 0 0.0 2.0 0.01 1.33 0.24 94 1007.9
20260506091545 45 0 0.0 3.0 0.01 1.32 0.23 94 1008.6
20260506090044 45 324 0.0 4.0 0.04 1.32 0.23 94 1008.3
20260506084542 45 304 1.0 3.0 0.07 1.32 0.23 94 1008.0
20260506083042 45 321 0.0 2.0 0.08 1.32 0.23 94 1007.8
20260506081545 45 55 0.0 2.0 0.09 1.30 0.21 94 1007.7
20260506073047 46 0 0.0 1.0 0.06 1.24 0.15 94 1007.9
20260506071539 46 0 0.0 1.0 0.03 1.21 0.12 94 1007.7
20260506061542 46 0 0.0 1.0 0.04 1.17 0.09 94 1008.0
20260506044548 47 36 0.0 3.0 0.04 1.12 0.03 94 1008.5
20260506043046 47 64 0.0 3.0 0.04 1.11 0.02 94 1008.5
20260506041552 47 20 0.0 2.0 0.05 1.10 0.01 94 1008.6
20260506040044 47 0 0.0 2.0 0.07 1.09 0.00 94 1008.8
20260506034553 48 0 0.0 2.0 0.11 1.08 1.08 94 1009.1
20260506033042 48 324 0.0 4.0 0.14 1.07 1.07 94 1009.2
20260506031545 49 0 1.0 3.0 0.16 1.04 1.04 94 1009.2
20260506030047 49 0 0.0 1.0 0.17 1.02 1.02 94 1009.2
20260506024555 49 0 0.0 1.0 0.17 0.97 0.97 94 1009.3
20260506023042 49 9 0.0 1.0 0.16 0.93 0.93 94 1009.1
20260506021551 49 0 0.0 2.0 0.13 0.88 0.88 94 1008.8
20260506020044 49 352 0.0 4.0 0.10 0.85 0.85 94 1008.6
20260506014544 49 43 1.0 3.0 0.06 0.80 0.80 94 1008.5
20260506013047 49 59 1.0 3.0 0.05 0.77 0.77 94 1008.6
20260506011607 49 0 0.0 2.0 0.05 0.75 0.75 94 1008.6
20260506010048 49 337 1.0 4.0 0.09 0.75 0.75 94 1008.3
20260506004546 49 55 0.0 3.0 0.09 0.74 0.74 93 1008.1
20260506003044 49 267 2.0 4.0 0.07 0.72 0.72 93 1008.8
20260506001544 49 67 0.0 5.0 0.06 0.70 0.70 93 1007.9
20260506000051 49 40 1.0 6.0 0.03 0.66 0.66 93 1007.8
20260505234551 49 16 0.0 4.0 0.05 0.65 0.65 93 1007.8
20260505233046 49 0 1.0 5.0 0.13 0.65 0.65 92 1007.8
20260505231544 50 42 0.0 4.0 0.13 0.64 0.64 92 1008.1
20260505230043 50 321 0.0 3.0 0.14 0.63 0.63 91 1008.4
20260505224543 50 0 1.0 4.0 0.16 0.60 0.60 91 1008.5
20260505223047 51 310 0.0 3.0 0.12 0.52 0.52 91 1008.0
20260505221554 52 322 1.0 4.0 0.14 0.51 0.51 90 1008.1
20260505220056 53 22 1.0 4.0 0.18 0.49 0.49 90 1007.8
20260505214550 54 311 2.0 4.0 0.19 0.44 0.44 90 1007.8
20260505213040 55 329 0.0 2.0 0.23 0.40 0.40 89 1007.5
20260505211545 56 333 1.0 5.0 0.25 0.36 0.36 90 1007.6
20260505210050 57 0 1.0 2.0 0.23 0.30 0.30 90 1007.6
20260505204552 57 243 0.0 1.0 0.21 0.25 0.25 90 1007.5
20260505203042 58 243 0.0 2.0 0.16 0.17 0.17 89 1007.4
20260505201549 58 268 0.0 2.0 0.11 0.11 0.11 88 1007.4
20260505200046 59 0 0.0 2.0 0.07 0.07 0.07 86 1007.4
20260505194551 59 0 0.0 2.0 0.04 0.04 0.04 85 1007.6
20260505193044 60 0 0.0 2.0 0.01 0.01 0.01 82 1007.8
20260505191540 61 0 0.0 3.0 0.00 0.00 0.00 78 1007.7
20260505190045 63 258 1.0 3.0 0.00 0.00 0.00 74 1007.7
20260505184550 64 273 1.0 4.0 0.00 0.00 0.00 71 1007.7
20260505183050 64 257 2.0 6.0 0.00 0.00 0.00 68 1007.5
20260505181546 65 218 1.0 4.0 0.00 0.00 0.00 68 1007.6
20260505180041 65 265 1.0 4.0 0.00 0.00 0.00 68 1007.4
20260505174547 65 304 2.0 7.0 0.00 0.00 0.00 67 1007.3
20260505173044 65 246 2.0 6.0 0.00 0.00 0.00 66 1007.4
20260505171546 65 272 2.0 7.0 0.00 0.00 0.00 65 1007.4
20260505170049 66 248 2.0 7.0 0.00 0.00 0.00 64 1007.3
20260505164556 66 0 1.0 8.0 0.00 0.00 0.00 63 1007.2
20260505163046 66 234 2.0 8.0 0.00 0.00 0.00 61 1007.1
20260505161555 67 257 3.0 7.0 0.00 0.00 0.00 59 1007.1
20260505153055 69 231 3.0 8.0 0.00 0.00 0.00 58 1006.5
20260505151553 68 236 2.0 7.0 0.00 0.00 0.00 58 1005.9